Regional Weather Roundup
Issued by NWS

Home | Current Version | Previous Version | Graphics & Text | Print | Product List | Glossary On
Versions: 1 2 3 4 5 6 7 8 9 10 11 12 13 14 15 16 17 18 19 20 21 22 23 24 25 26 27 28 29 30 31 32 33 34 35 36 37 38 39 40 41 42 43 44 45 46 47 48 49 50
319
ASUS45 KCYS 200110
RWRWY

WYOMING REGIONAL WEATHER ROUNDUP
NATIONAL WEATHER SERVICE CHEYENNE WY
700 PM MDT WED JUL 19 2017

NOTE:  "FAIR" INDICATES FEW OR NO CLOUDS BELOW 12,000 FEET
WITH NO SIGNIFICANT WEATHER AND/OR OBSTRUCTIONS TO VISIBILITY.

WYZ001-200200-
YELLOWSTONE NATIONAL PARK

CITY           SKY/WX    TMP DP  RH WIND       PRES   REMARKS
LK YELLOWSTONE   N/A     74  25  16 S3        30.31S
W YELLOWSTONE  NOT AVBL

$$
WYZ002>013-054>058-071-098>099-200200-
NORTHERN WYOMING

CITY           SKY/WX    TMP DP  RH WIND       PRES   REMARKS
JACKSON        SUNNY     84  30  14 SW12      30.17F
CODY           FAIR      80  47  31 N7        30.07F
GREYBULL       FAIR      95  32  11 N12       29.93F HX  90
WORLAND        FAIR      93  50  23 NE6       29.95F HX  90
SHERIDAN       FAIR      85  51  31 S7        30.02F
BUFFALO        FAIR      85  43  22 W6        30.11F
GILLETTE       FAIR      87  45  23 NE12      30.04F
HULETT         FAIR      82  52  34 NE12      30.07S
NEWCASTLE      FAIR      90  43  19 NW12      30.02S

$$
WYZ014>020-022>026-101>103-200200-
CENTRAL WYOMING

CITY           SKY/WX    TMP DP  RH WIND       PRES   REMARKS
BIG PINEY      PTSUNNY   81  46  29 E6        30.23S
PINEDALE       FAIR      77  50  38 SE6       30.25R
DUBOIS         FAIR      82  28  14 N12       30.23R
LANDER         FAIR      83  47  28 SW9       30.08F
RIVERTON       FAIR      87  45  23 SW9       30.07S
CASPER         FAIR      88  43  20 NE16      30.08S
DOUGLAS        FAIR      89  42  19 NE13      30.07S

$$
WYZ021-027>030-104>119-200200-
SOUTHERN WYOMING

CITY           SKY/WX    TMP DP  RH WIND       PRES   REMARKS
EVANSTON       FAIR      71  50  47 S10       30.29S
KEMMERER         N/A     79  45  29 SW3       30.28R
FORT BRIDGER   CLOUDY    75  46  35 S17G23    30.30S
ROCK SPRINGS   PTSUNNY   81  40  23 SW13      30.22R
DIXON          LGT RAIN  67  54  62 N8        30.31R
RAWLINS        LGT RAIN  74  46  36 NW16      30.22R
SARATOGA       LGT RAIN  66  57  72 SE13      30.32R
LARAMIE        LGT RAIN  64  53  67 NE10      30.33F
CHEYENNE       CLOUDY    78  49  35 NW28G37   30.21R
TORRINGTON     FAIR      95  53  24 NE25G32   29.94S HX  92
PINE BLUFFS    FAIR      86  48  26 CALM      30.05S

$$




USA.gov is the U.S. government's official web portal to all federal, state and local government web resources and services.